FW7873 Weather Reports


Display with metric or nautical units.
time (UTC)temp
F
wind
direction
speed
MPH
gust
MPH
rain 1hr
in
rain 24hr
in
rain mn
in
humidity
%
barometer
mb
20260903043104 72 0 0.0 0.0 0.00 0.48 0.00 95 1014.9
20260903041600 72 0 0.0 1.0 0.23 0.48 0.00 95 1014.8
20260903040109 72 0 0.0 0.0 0.37 0.48 0.00 94 1014.7
20260903034604 72 0 0.0 3.0 0.48 0.48 0.48 93 1014.6
20260903033101 71 17 6.0 17.0 0.48 0.48 0.48 93 1013.9
20260903031622 71 326 7.0 19.0 0.25 0.25 0.25 90 1014.7
20260903030117 72 22 2.0 29.0 0.11 0.11 0.11 85 1014.7
20260903024602 80 41 4.0 11.0 0.00 0.00 0.00 80 1015.7
20260903023111 80 0 0.0 0.0 0.00 0.00 0.00 80 1013.4
20260903021608 80 0 0.0 0.0 0.00 0.00 0.00 79 1013.0
20260903014612 82 0 0.0 1.0 0.00 0.00 0.00 76 1014.2
20260903013110 82 0 0.0 0.0 0.00 0.00 0.00 75 1014.2
20260903011627 82 0 0.0 0.0 0.00 0.00 0.00 74 1014.1
20260903010119 83 0 0.0 1.0 0.00 0.00 0.00 73 1014.0
20260903004604 83 0 0.0 0.0 0.00 0.00 0.00 71 1013.8
20260903003106 84 0 0.0 0.0 0.00 0.00 0.00 70 1013.7
20260903001606 85 0 0.0 0.0 0.00 0.00 0.00 68 1013.8
20260903000104 86 0 0.0 1.0 0.00 0.00 0.00 66 1013.8
20260902234602 87 0 0.0 2.0 0.00 0.00 0.00 65 1013.7
20260902233105 88 12 0.0 3.0 0.00 0.00 0.00 64 1013.8
20260902231613 88 0 0.0 3.0 0.00 0.00 0.00 63 1013.7
20260902230105 89 134 0.0 3.0 0.00 0.00 0.00 61 1013.7
20260902224608 90 42 1.0 3.0 0.00 0.00 0.00 60 1013.6
20260902223111 90 15 1.0 4.0 0.00 0.00 0.00 61 1013.6
20260902221628 90 251 0.0 2.0 0.00 0.00 0.00 61 1013.5
20260902220106 90 0 1.0 6.0 0.00 0.00 0.00 60 1013.5
20260902214603 91 74 2.0 9.0 0.00 0.00 0.00 59 1013.4
20260902213109 91 0 1.0 8.0 0.00 0.00 0.00 56 1013.6
20260902211605 92 132 1.0 6.0 0.00 0.00 0.00 58 1013.8
20260902210103 92 141 1.0 4.0 0.00 0.00 0.00 58 1013.8
20260902204604 92 0 2.0 10.0 0.00 0.00 0.00 58 1013.9
20260902203107 93 113 1.0 9.0 0.00 0.00 0.00 56 1014.2
20260902201611 93 0 1.0 8.0 0.00 0.00 0.00 55 1014.4
20260902200112 92 130 1.0 8.0 0.00 0.00 0.00 56 1014.6
20260902194602 92 0 1.0 9.0 0.00 0.00 0.00 56 1014.8
20260902193106 92 90 2.0 8.0 0.00 0.00 0.00 54 1015.1
20260902191634 94 59 1.0 6.0 0.00 0.00 0.00 54 1015.2
20260902190107 93 222 1.0 6.0 0.00 0.00 0.00 54 1015.4
20260902184601 93 0 1.0 6.0 0.00 0.00 0.00 56 1015.1
20260902183129 92 0 1.0 7.0 0.00 0.00 0.00 57 1015.2
20260902181613 91 236 0.0 7.0 0.00 0.00 0.00 59 1015.5
20260902180108 92 0 1.0 5.0 0.00 0.00 0.00 60 1015.4
20260902175017 91 55 3.0 3.0 0.00 0.00 0.00 60 1015.6
20260902174609 91 55 1.0 6.0 0.00 0.00 0.00 60 1015.6
20260902174016 91 252 3.0 3.0 0.00 0.00 0.00 60 1015.9
20260902173517 91 252 2.0 2.0 0.00 0.00 0.00 60 1015.9
20260902173113 91 252 1.0 3.0 0.00 0.00 0.00 60 1015.9
20260902172516 92 188 2.0 2.0 0.00 0.00 0.00 62 1016.3
20260902172017 92 188 2.0 2.0 0.00 0.00 0.00 62 1016.3
20260902171619 91 188 1.0 3.0 0.00 0.00 0.00 62 1016.1
20260902171516 91 76 2.0 2.0 0.00 0.00 0.00 63 1016.3
20260902171021 91 76 2.0 2.0 0.00 0.00 0.00 63 1016.3
20260902170106 90 76 0.0 5.0 0.00 0.00 0.00 63 1016.3
20260902170016 90 21 2.0 2.0 0.00 0.00 0.00 64 1016.6
20260902164610 90 21 2.0 6.0 0.00 0.00 0.00 64 1016.4
20260902164016 90 67 2.0 2.0 0.00 0.00 0.00 65 1016.6
20260902163103 89 67 1.0 4.0 0.00 0.00 0.00 65 1016.5
20260902162516 90 24 2.0 2.0 0.00 0.00 0.00 65 1016.3
20260902161608 89 24 0.0 4.0 0.00 0.00 0.00 65 1016.3
20260902161516 89 89 1.0 1.0 0.00 0.00 0.00 67 1016.3
20260902161016 89 89 1.0 1.0 0.00 0.00 0.00 67 1016.3
20260902160116 89 89 0.0 4.0 0.00 0.00 0.00 67 1016.3
20260902160016 89 36 1.0 1.0 0.00 0.00 0.00 69 1016.3
20260902155516 89 36 1.0 1.0 0.00 0.00 0.00 69 1016.3
20260902155016 89 36 1.0 1.0 0.00 0.00 0.00 69 1016.3
20260902154610 89 36 0.0 3.0 0.00 0.00 0.00 69 1016.3
20260902153104 88 0 0.0 4.0 0.00 0.00 0.00 69 1016.4
20260902153017 89 283 1.0 1.0 0.00 0.00 0.00 69 1016.6
20260902151608 88 283 0.0 3.0 0.00 0.00 0.00 69 1016.4
20260902151516 88 135 1.0 1.0 0.00 0.00 0.00 71 1016.3
20260902151016 88 135 1.0 1.0 0.00 0.00 0.00 71 1016.3
20260902150125 88 135 0.0 4.0 0.00 0.00 0.00 71 1016.2
20260902144606 87 74 0.0 3.0 0.00 0.00 0.00 74 1016.2
20260902144019 86 28 1.0 1.0 0.00 0.00 0.00 74 1016.3
20260902143103 85 28 0.0 3.0 0.00 0.00 0.00 74 1016.2
20260902142016 84 0 1.0 1.0 0.00 0.00 0.00 78 1016.3
20260902141601 84 0 0.0 3.0 0.00 0.00 0.00 78 1016.1
20260902140106 82 238 0.0 2.0 0.00 0.00 0.00 80 1016.2
20260902140016 82 254 1.0 1.0 0.00 0.00 0.00 83 1016.3
20260902134607 81 254 0.0 1.0 0.00 0.00 0.00 83 1016.1
20260902133109 80 0 0.0 1.0 0.00 0.00 0.00 87 1016.2
20260902131913 78 0 0.0 0.0 0.00 0.00 0.00 92 1016.3
20260902131605 78 0 0.0 1.0 0.00 0.00 0.00 92 1016.3
20260902130105 76 45 0.0 3.0 0.00 0.00 0.00 95 1016.2
20260902124558 75 0 0.0 2.0 0.00 0.00 0.00 96 1016.3
20260902123107 74 0 0.0 2.0 0.00 0.00 0.00 96 1016.3
20260902121602 74 0 0.0 0.0 0.00 0.00 0.00 96 1016.3
20260902114611 74 0 0.0 0.0 0.00 0.00 0.00 96 1016.4
20260902113107 74 0 0.0 0.0 0.00 0.00 0.00 96 1016.4
20260902111609 74 0 0.0 0.0 0.00 0.00 0.00 96 1016.3
20260902104616 74 0 0.0 0.0 0.00 0.00 0.00 96 1016.5
20260902103106 74 0 0.0 0.0 0.00 0.00 0.00 96 1016.2
20260902101605 74 0 0.0 0.0 0.00 0.00 0.00 96 1016.2
20260902100100 74 0 0.0 0.0 0.00 0.00 0.00 95 1015.9
20260902094604 74 0 0.0 0.0 0.00 0.00 0.00 95 1015.8
20260902093106 74 0 0.0 0.0 0.00 0.00 0.00 95 1015.9
20260902091601 74 0 0.0 0.0 0.00 0.00 0.00 95 1015.9
20260902090120 74 0 0.0 0.0 0.00 0.00 0.00 95 1015.8
20260902084603 74 0 0.0 0.0 0.00 0.00 0.00 95 1015.6
20260902083105 74 0 0.0 0.0 0.00 0.00 0.00 95 1015.7
20260902081609 73 0 0.0 0.0 0.00 0.00 0.00 95 1015.8
20260902080105 73 0 0.0 0.0 0.00 0.00 0.00 95 1015.6
20260902074613 73 0 0.0 0.0 0.00 0.00 0.00 94 1015.7
20260902073103 73 0 0.0 0.0 0.00 0.00 0.00 94 1015.7
20260902071613 73 0 0.0 0.0 0.00 0.00 0.00 94 1015.7
20260902070105 73 0 0.0 0.0 0.00 0.00 0.00 94 1015.6
20260902064604 73 0 0.0 0.0 0.00 0.00 0.00 93 1015.5
20260902063101 73 0 0.0 0.0 0.00 0.00 0.00 93 1015.6
20260902060109 73 0 0.0 0.0 0.00 0.00 0.00 93 1015.8
20260902054613 74 0 0.0 0.0 0.00 0.00 0.00 92 1015.9
20260902053112 74 0 0.0 0.0 0.00 0.00 0.00 92 1016.0
20260902051616 74 0 0.0 0.0 0.00 0.00 0.00 92 1016.1
20260902050129 74 0 0.0 0.0 0.00 0.00 0.00 92 1016.2
20260902044607 74 0 0.0 0.0 0.00 0.00 0.00 91 1016.2